Weather History for Monterey, CA

Change the Weather History Date:

Sunday, January 29, 2012

  Actual Average Record
Temperature  
Mean Temperature 56 °F 52 °F  
Max Temperature 67 °F 60 °F 73 °F (2009)
Min Temperature 45 °F 43 °F 32 °F (2002)
Degree Days  
Heating Degree Days 9    
Month to date heating degree days 382  
Since 1 July heating degree days 1750  
Cooling Degree Days 0    
Month to date cooling degree days 0  
Year to date cooling degree days 0  
Growing Degree Days 6 (Base 50)    
Moisture  
Dew Point 34 °F    
Average Humidity 47    
Maximum Humidity 66    
Minimum Humidity 28    
Precipitation  
Precipitation 0.00 in - 0.13 in (1951)
Month to date precipitation 1.31  
Year to date precipitation 1.31  
Since 1 July precipitation 5.11  
Sea Level Pressure  
Sea Level Pressure 30.23 in    
Wind  
Wind Speed 3 mph (NE)    
Max Wind Speed 9 mph    
Max Gust Speed 10 mph    
Visibility 10 miles    
Events      
T = Trace of Precipitation, MM = Missing Value Source: NWS Daily Summary

Daily Weather History Graph

Daily Weather History Graph

Search for Another Location

Airport:

Trip Planner

Search our weather history database for the weather conditions in past years. The results will help you decide how hot, cold, wet, or windy it might be!

Date:

Astronomy

Jan. 29, 2012 Rise Set
Actual Time 7:11 AM PST 5:29 PM PST
Civil Twilight 6:44 AM PST 5:57 PM PST
Nautical Twilight 6:13 AM PST 6:28 PM PST
Astronomical Twilight 5:42 AM PST 6:58 PM PST
Moon 10:18 AM PST (1/29) No Moon Set
Length of Visible Light 11h 12m
Length of Day
10h 17m
Waxing Crescent, 37% of the Moon is Illuminated
Jan 29
Waxing Crescent
Jan 30
First Quarter
Feb 7
Full
Feb 14
Last Quarter
Feb 21
New

Hourly Weather History & Observations

Time (PST) Temp. Windchill Dew Point Humidity Pressure Visibility Wind Dir Wind Speed Gust Speed Precip Events Conditions
12:54 AM 48.0 °F - 36.0 °F 63% 30.27 in 10.0 mi East 5.8 mph - N/A   Clear
1:54 AM 52.0 °F - 33.1 °F 49% 30.27 in 10.0 mi East 5.8 mph - N/A   Clear
2:54 AM 46.9 °F - 33.1 °F 59% 30.27 in 10.0 mi Calm Calm - N/A   Clear
3:54 AM 46.9 °F - 33.1 °F 59% 30.25 in 10.0 mi East 6.9 mph - N/A   Clear
4:54 AM 46.0 °F 42.5 °F 32.0 °F 58% 30.25 in 10.0 mi East 6.9 mph - N/A   Clear
5:54 AM 46.9 °F - 30.9 °F 54% 30.26 in 10.0 mi East 6.9 mph - N/A   Clear
6:54 AM 46.9 °F - 30.0 °F 52% 30.27 in 10.0 mi ENE 3.5 mph - N/A   Clear
7:54 AM 46.9 °F - 28.9 °F 50% 30.27 in 10.0 mi East 3.5 mph - N/A   Clear
8:54 AM 52.0 °F - 33.1 °F 49% 30.26 in 10.0 mi Calm Calm - N/A   Clear
9:54 AM 59.0 °F - 34.0 °F 39% 30.27 in 10.0 mi Calm Calm - N/A   Clear
10:54 AM 62.6 °F - 35.6 °F 37% 30.23 in 10.0 mi WNW 3.5 mph - N/A   Clear
11:54 AM 64.0 °F - 30.9 °F 29% 30.26 in 10.0 mi NW 3.5 mph - N/A   Clear
12:54 PM 64.9 °F - 33.1 °F 31% 30.23 in 10.0 mi West 5.8 mph - N/A   Clear
1:54 PM 66.0 °F - 32.0 °F 28% 30.22 in 10.0 mi NNW 3.5 mph - N/A   Clear
2:54 PM 66.0 °F - 34.0 °F 30% 30.21 in 10.0 mi NNW 3.5 mph - N/A   Clear
3:54 PM 61.0 °F - 34.0 °F 36% 30.20 in 10.0 mi NW 4.6 mph - N/A   Clear
4:54 PM 59.0 °F - 39.9 °F 49% 30.18 in 10.0 mi Calm Calm - N/A   Clear
5:54 PM 55.0 °F - 39.0 °F 55% 30.18 in 10.0 mi ESE 4.6 mph - N/A   Clear
6:54 PM 52.0 °F - 37.9 °F 59% 30.18 in 10.0 mi Calm Calm - N/A   Clear
7:54 PM 51.1 °F - 36.0 °F 56% 30.20 in 10.0 mi Calm Calm - N/A   Clear
8:54 PM 48.0 °F - 36.0 °F 63% 30.20 in 10.0 mi Calm Calm - N/A   Clear
9:54 PM 48.9 °F - 37.0 °F 64% 30.19 in 10.0 mi WSW 3.5 mph - N/A   Clear
10:54 PM 50.0 °F - 36.0 °F 59% 30.18 in 10.0 mi West 4.6 mph - N/A   Clear
11:54 PM 46.0 °F 43.1 °F 37.0 °F 71% 30.19 in 10.0 mi East 5.8 mph - N/A   Clear